HST
1 20580U 90037B   24128.08098645  .00007198  00000-0  34363-3 0  9998
2 20580  28.4684 260.4235 0002014 320.4242  39.6203 15.17125405671047
ISS (ZARYA)
1 25544U 98067A   24128.36829091  .00016537  00000-0  28705-3 0  9992
2 25544  51.6388 157.7777 0003617 143.3446 338.7927 15.50977738452211
CXO
1 25867U 99040B   24128.19632862  .00000638  00000-0  00000+0 0  9990
2 25867  40.2552 157.8199 8932055 293.5091   0.0392  0.37812619 25568